Lexington Weather

Lexington, Massachusetts, USA

26°F
12/12/2019 5:07pm 
  • Lexington Conditions: Partly cloudy
  • Temperature: 26.2°F / -3.2°CColder 1.8°F than last hour.
  • Dew Point: 19.8°FIncreased 0.2°Fsince last hour.
  • Relative Humidity: 76%Increased 6.0% since last hour.
  • Wind: Wind from WSW WSW 1 mph, 10-min avg: 1 mph, gust: 2 mph
  • Barometer: 30.66 in Steady
  • Visibility: 10 miles
  • Snow Today: 0.0 in
  •   

Regional Weather Roundup
for Boston / Norton, MA

        
000
ASUS41 KBOX 111010
RWRBOX

REGIONAL WEATHER ROUNDUP
NATIONAL WEATHER SERVICE BOSTON/NORTON MA
500 AM EST WED DEC 11 2019

NOTE:  "FAIR" INDICATES FEW OR NO CLOUDS BELOW 12,000 FEET WITH NO 
SIGNIFICANT WEATHER AND/OR OBSTRUCTIONS TO VISIBILITY.

MAZALL-111100-
EASTERN MASSACHUSETTS
  
CITY           SKY/WX    TMP DP  RH WIND       PRES   REMARKS
BOSTON         LGT SNOW  34  28  79 NW15G23   30.18R WCI  24          
BEVERLY        LGT SNOW  32  29  88 NW7       30.14R FOG     WCI  26  
LAWRENCE       FLURRIES  30  26  85 W9        30.20R WCI  22          
BEDFORD        LGT SNOW  31  28  89 NW7       30.16S VSB 1   WCI  24  
BLUE HILL        N/A     29  28  96 NW10G20   30.13R WCI  20          
NORWOOD        LGT SNOW  34  29  82 NW6       30.18R WCI  29          
MARSHFIELD     LGT SNOW  34  32  93 NW9G21    30.15R WCI  26          
PLYMOUTH       LGT SNOW  32  30  92 NW10G21   30.16R FOG     WCI  24  
TAUNTON        LGT SNOW  34  31  88 N6        30.16R FOG     WCI  29  
NEW BEDFORD    LGT SNOW  34  32  92 VRB3      30.14R FOG              
$$

MAZALL-111100-
CAPE COD AND THE ISLANDS
  
CITY           SKY/WX    TMP DP  RH WIND       PRES   REMARKS
FALMOUTH       DRIZZLE   36  36 100 NW7       30.14  WCI  30          
HYANNIS        LGT SNOW  37  34  89 N18G26    30.13R FOG     WCI  27  
CHATHAM        LGT RAIN N/A N/A N/A N12G24    30.14R                  
PROVINCETOWN   LGT RAIN  34  32  92 NW23G31   30.15R WCI  22          
NANTUCKET      LGT RAIN  40  37  89 N16       30.13R WCI  31          
MARTHAS VNYRD  LGT RAIN  38  36  92 NW8       30.14R FOG              
$$
 
MAZALL-111100-
CENTRAL AND WESTERN MASSACHUSETTS
  
CITY           SKY/WX    TMP DP  RH WIND       PRES   REMARKS
WORCESTER      SNOW      27  26  96 NW6       30.12R VSB 1/2 WCI  20  
FITCHBURG      LGT SNOW  30  25  81 W7        30.18R WCI  23          
ORANGE         LGT SNOW  31  22  69 W13G20    30.17R WCI  21          
SPRINGFIELD    MIX PCPN  30  26  84 NW13      30.18R WCI  20          
WESTFIELD      LGT SNOW  30  26  85 MISG      30.18R FOG              
NORTH ADAMS    MOCLDY    28  14  55 W10       30.15R WCI  19          
PITTSFIELD     CLOUDY    26  16  65 W12       30.10F WCI  16          
$$
 
RIZALL-111100-
RHODE ISLAND
  
CITY           SKY/WX    TMP DP  RH WIND       PRES   REMARKS
PROVIDENCE     LGT SNOW  33  31  92 NW8G18    30.17R FOG     WCI  26  
NEWPORT        LGT SNOW  35  32  88 NW10      30.14R FOG     WCI  27  
BLOCK ISLAND   LGT RAIN  34  32  92 N14G21    30.16R WCI  25          
SMITHFIELD     LGT SNOW  30  30 100 N10       30.16R FOG     WCI  21  
WESTERLY       LGT SNOW  36  30  80 N12       30.17R FOG     WCI  27  
$$
 
CTZALL-111100-
CONNECTICUT
  
CITY           SKY/WX    TMP DP  RH WIND       PRES   REMARKS
BRADLEY INTL   LGT SNOW  31  27  85 NW9       30.20R VSB 3/4 WCI  23  
HARTFORD       LGT SNOW  31  29  92 NW7       30.21R FOG     WCI  24  
BRIDGEPORT     LGT SNOW  33  30  88 N14       30.18F VSB 1   WCI  23  
DANBURY        LGT SNOW  29  27  92 NE9       30.19R VSB 3/4 WCI  20  
GROTON         LGT SNOW  33  32  96 N10       30.16S FOG     WCI  25  
NEW HAVEN      LGT SNOW  34  31  88 N17G24    30.18R VSB 3/4 WCI  23  
CHESTER        LGT SNOW  32  30  93 CALM      30.17R VSB 3/4          
MERIDEN        LGT SNOW  30  28  92 N10       30.20R FOG     WCI  21  
WILLIMANTIC    LGT SNOW  31  29  92 N10       30.19R VSB 3/4 WCI  22  
OXFORD         LGT SNOW  27  27 100 N15       30.17R FOG     WCI  15  
$$

MEZ002-015-021-024-NHZ003-005-008-011-012-014-VTZ005-008-111100-
NORTHERN NEW ENGLAND
  
CITY           SKY/WX    TMP DP  RH WIND       PRES   REMARKS
PORTLAND ME    CLOUDY    34  30  85 S5        30.13R WCI  30          
BANGOR ME      CLOUDY    30  15  53 NW12      30.11R WCI  20          
CONCORD NH     CLOUDY    33  13  43 NW12      30.10R WCI  24          
MANCHESTER NH  CLOUDY    33  21  61 W6        30.12R WCI  28          
NASHUA NH      FLURRIES  30  29  96 SW5       30.17R WCI  25          
PORTSMOUTH NH  LGT SNOW  31  29  90 S3        30.10  FOG              
JAFFREY NH     LGT SNOW  27  21  78 W7        30.12R WCI  19          
KEENE NH       FLURRIES  30  23  75 SW5       30.14R WCI  25          
BURLINGTON VT  FAIR      20   6  55 N9        30.22S WCI   9          
MT. WASHINGTON FOG        0   0 100 NE46        N/A  VSB 1/16WCI -31  
$$

NYZ052-076-111100-
EASTERN NEW YORK
  
CITY           SKY/WX    TMP DP  RH WIND       PRES   REMARKS
ALBANY         CLOUDY    30  12  47 NW9       30.20R WCI  22          
NEW YORK CITY  LGT SNOW  34  31  88 N6        30.19R FOG     WCI  29  
$$
 
ANZALL-111100-
MARINE OBSERVATIONS
  
STATION/POSITION TIME  TEMP    WIND        PRES    VSBY  WAVE
                       AIR SEA DIR/SP/G                  HT/PER
                 (UTC) (F)     (DEG/KT/KT) (MB)    (MI)  (FT/S)
BOSTON BUOY      0950   35 47  330/ 17/ 21 1020.3R         5/ 4
BUZZARDS BAY     0900   38     330/ 17/ 18 1020.0R
NANTUCKET SOUND  0940      43              1020.1R
MASS BAY-STELLWA 0904   34 46  330/ 21/ 25 1018.7R  1 3/4  3/ 4
ISLE OF SHOALS   0900   33     290/ 16/ 18 1019.7R
S OF BLOCK IS    1000      53                N/A           7/10
$$

......................KEY.........................
  SKY/WX - SKY CONDITION/PRESENT WEATHER
  TMP    - TEMPERATURE IN FAHRENHEIT
  DWPT   - DEWPOINT IN FAHRENHEIT
  RH     - RELATIVE HUMIDITY IN PERCENT
  WIND   - DIRECTION AND SPEED IN MPH
  PRES   - MEAN SEA LEVEL PRESSURE IN INCHES OF HG
  WCI    - WIND CHILL INDEX
  VSB    - VISIBILITY IN MILES
  HX     - HEAT INDEX
  TC     - TEMPERATURE IN CELSIUS
  VRB    - VARIABLE WIND DIRECTION
  N/A    - NOT AVAILABLE
  
      

Other recent Regional Weather Roundups

Thu Dec 12, 5:00pm

Thu Dec 12, 4:10pm

Thu Dec 12, 4:01pm

Thu Dec 12, 3:10pm

Thu Dec 12, 3:00pm

Thu Dec 12, 2:10pm

Thu Dec 12, 2:01pm

Thu Dec 12, 1:10pm

Thu Dec 12, 1:00pm

Thu Dec 12, 12:10pm

Thu Dec 12, 12:00pm

Thu Dec 12, 11:10am

Thu Dec 12, 11:00am

Thu Dec 12, 10:10am

Thu Dec 12, 8:10am

Thu Dec 12, 8:00am

Thu Dec 12, 7:10am

Thu Dec 12, 7:00am

Thu Dec 12, 6:10am

Thu Dec 12, 6:00am

Thu Dec 12, 5:10am

Thu Dec 12, 5:00am

Thu Dec 12, 4:10am

Thu Dec 12, 4:00am

Thu Dec 12, 3:10am

Thu Dec 12, 3:00am

Thu Dec 12, 2:10am

Thu Dec 12, 2:00am

Thu Dec 12, 1:10am

Thu Dec 12, 1:00am

Thu Dec 12, 12:10am

Thu Dec 12, 12:00am

Wed Dec 11, 11:10pm

Wed Dec 11, 11:00pm

Wed Dec 11, 10:10pm

Wed Dec 11, 10:00pm

Wed Dec 11, 9:10pm

Wed Dec 11, 9:00pm

Wed Dec 11, 8:10pm

Wed Dec 11, 8:00pm

Wed Dec 11, 7:10pm

Wed Dec 11, 7:00pm

Wed Dec 11, 6:10pm

Wed Dec 11, 6:00pm

Wed Dec 11, 5:10pm

Wed Dec 11, 5:01pm

Wed Dec 11, 4:10pm

Wed Dec 11, 4:00pm

Wed Dec 11, 3:10pm

Wed Dec 11, 3:01pm

Wed Dec 11, 2:10pm

Wed Dec 11, 2:00pm

Wed Dec 11, 1:10pm

Wed Dec 11, 1:00pm

Wed Dec 11, 12:10pm

Wed Dec 11, 12:00pm

Wed Dec 11, 11:10am

Wed Dec 11, 11:00am

Wed Dec 11, 10:10am

Wed Dec 11, 10:00am

Wed Dec 11, 9:10am

Wed Dec 11, 9:00am

Wed Dec 11, 8:10am

Wed Dec 11, 8:00am

Wed Dec 11, 7:10am

Wed Dec 11, 7:00am

Wed Dec 11, 6:10am

Wed Dec 11, 6:00am

Wed Dec 11, 5:00am

Wed Dec 11, 4:10am

Wed Dec 11, 4:00am

Wed Dec 11, 3:10am

Wed Dec 11, 3:01am

Wed Dec 11, 2:10am

Wed Dec 11, 2:01am

Wed Dec 11, 1:10am

Wed Dec 11, 1:00am

Wed Dec 11, 12:10am

Wed Dec 11, 12:00am

Tue Dec 10, 11:10pm

Tue Dec 10, 11:00pm

Tue Dec 10, 10:10pm

Tue Dec 10, 10:00pm

Tue Dec 10, 9:10pm

Tue Dec 10, 9:01pm

Tue Dec 10, 8:10pm

Tue Dec 10, 8:00pm

Tue Dec 10, 7:10pm

Tue Dec 10, 7:01pm

Tue Dec 10, 6:10pm

Tue Dec 10, 6:01pm

Tue Dec 10, 5:10pm

Tue Dec 10, 5:00pm

Tue Dec 10, 4:10pm

Tue Dec 10, 4:01pm

Tue Dec 10, 3:10pm

Tue Dec 10, 3:01pm

Tue Dec 10, 2:10pm

Tue Dec 10, 2:01pm

Tue Dec 10, 1:10pm

Tue Dec 10, 1:00pm

Tue Dec 10, 12:10pm

Tue Dec 10, 12:00pm

Tue Dec 10, 11:10am

Tue Dec 10, 11:00am

Tue Dec 10, 10:10am

Tue Dec 10, 10:00am

Tue Dec 10, 9:10am

Tue Dec 10, 9:01am

Tue Dec 10, 8:10am

Tue Dec 10, 8:00am

Tue Dec 10, 7:10am

Tue Dec 10, 7:00am

Tue Dec 10, 6:10am

Tue Dec 10, 6:00am

Tue Dec 10, 5:10am

Tue Dec 10, 5:00am

Tue Dec 10, 4:10am

Tue Dec 10, 4:00am

Tue Dec 10, 3:10am

Tue Dec 10, 3:00am

Tue Dec 10, 2:10am

Tue Dec 10, 2:01am

Tue Dec 10, 1:10am

Tue Dec 10, 1:00am

Tue Dec 10, 12:10am

Tue Dec 10, 12:01am

Mon Dec 9, 11:10pm

Mon Dec 9, 11:01pm

Mon Dec 9, 10:10pm

Mon Dec 9, 10:00pm

Mon Dec 9, 9:10pm

Mon Dec 9, 9:01pm

Mon Dec 9, 8:10pm

Mon Dec 9, 8:01pm

Mon Dec 9, 7:10pm

Mon Dec 9, 7:00pm

Mon Dec 9, 6:10pm

Mon Dec 9, 6:00pm

Mon Dec 9, 5:10pm

Meta data:

ID: 1fe7fa51-bdb9-4456-9adf-1c4ae97859c3
Link: https://api.weather.gov/products/1fe7fa51-bdb9-4456-9adf-1c4ae97859c3